Location: Abraham Lincoln Continuation High School
(33.9711°N, 117.3662°W)
Time: 01:10:57
(UTC+00:00)

Iridium 4 Rocket - Pass Details

Date: 21 January 2021
Orbit: 583 x 906 km, 86.9° (Epoch: 03 March)

Event Time Altitude Azimuth Distance (km) Brightness Sun altitude
Rises 03:01:08 0° 358° (N) 3,448 6.8 -23.1°
Reaches altitude 10° 03:03:38 10° 358° (N) 2,470 6.1 -23.7°
Maximum altitude 03:09:13 85° 270° (W) 802 3.5 -24.8°
Drops below altitude 10° 03:14:16 10° 182° (S) 2,249 6.0 -25.8°
Sets 03:16:28 0° 182° (S) 3,119 6.8 -26.3°
